Welcome to Northern Hawkes Bay. New Zealand.
PWS Header
      nz Flag



Hit Counter


W3C Valid W3C Valid logo


    Wairoa

Select any of the Stations below to visit their websites.










Historic Data from Weather Underground
Select the location of interest below. Wairoa is the default. Please have patience, this Data is slow to load in.
Northern Hawkes Bay Historical Data
Daily Summary for January 20, 2017 Units:  English    Metric   Both
« Previous Day
Next Day »
Daily Weekly Monthly Yearly Custom
  High: Low: Average:
Temperature: 65.7 °F 50.5 °F 58.6 °F
Dew Point: 52.3 °F 43.7 °F 47.3 °F
Humidity: 91% 49% 67%
Wind Speed: 18.3mph 0mph 5.5mph
Wind Gust: 24.4mph - -
Wind- - WSW
Pressure: 29.9 in 29.4 in -
Precipitation: 0.01 in    
Historical Graphs
 
 
Tabular Data for January 20, 2017
Time Temperature Dew Point Pressure Wind Wind Speed Wind Gust Humidity Rainfall Rate (Hourly) solar
00:03 60.4 °F 44.8 °F 29.4 in NNW 8.3 mph 11.4 mph 56% 0 in 0 W/m2
00:08 60.8 °F 44.4 °F 29.4 in NW 2.2 mph 12.1 mph 55% 0 in 0 W/m2
00:13 60.4 °F 44.8 °F 29.4 in NW 3.1 mph 12.1 mph 56% 0 in 0 W/m2
00:18 59.9 °F 44.6 °F 29.4 in NW 2.2 mph 4.5 mph 57% 0 in 0 W/m2
00:23 59.4 °F 44.6 °F 29.4 in NNW 3.8 mph 5.4 mph 58% 0 in 0 W/m2
00:28 59.2 °F 45 °F 29.4 in NNW 3.1 mph 5.4 mph 59% 0 in 0 W/m2
00:33 59 °F 45.1 °F 29.4 in NW 3.1 mph 5.4 mph 60% 0 in 0 W/m2
00:38 59 °F 45.1 °F 29.4 in NNW 2.2 mph 5.4 mph 60% 0 in 0 W/m2
00:43 59 °F 45.1 °F 29.4 in NW 3.1 mph 6 mph 60% 0 in 0 W/m2
00:48 59.2 °F 45 °F 29.4 in NW 2.2 mph 6 mph 59% 0 in 0 W/m2
00:53 59.2 °F 45 °F 29.4 in NW 1.6 mph 6 mph 59% 0 in 0 W/m2
00:58 59 °F 44.8 °F 29.4 in NNW 0.7 mph 4.5 mph 59% 0 in 0 W/m2
01:03 58.6 °F 45.1 °F 29.4 in North 2.2 mph 3.8 mph 61% 0 in 0 W/m2
01:08 58.5 °F 45.5 °F 29.4 in NNW 3.8 mph 5.4 mph 62% 0 in 0 W/m2
01:13 58.3 °F 45.9 °F 29.4 in NNW 3.1 mph 6 mph 63% 0 in 0 W/m2
01:18 58.3 °F 45.9 °F 29.4 in North 4.5 mph 6.9 mph 63% 0 in 0 W/m2
01:23 58.5 °F 45.9 °F 29.4 in North 4.5 mph 7.6 mph 63% 0 in 0 W/m2
01:28 58.6 °F 45.7 °F 29.4 in North 6.9 mph 9.2 mph 62% 0 in 0 W/m2
01:33 59.2 °F 45.3 °F 29.4 in North 5.4 mph 9.2 mph 60% 0 in 0 W/m2
01:38 59.4 °F 45 °F 29.4 in NW 4.5 mph 9.2 mph 59% 0 in 0 W/m2
01:43 59.2 °F 45 °F 29.4 in NW 5.4 mph 9.2 mph 59% 0 in 0 W/m2
01:48 59.2 °F 45.3 °F 29.4 in NNW 6.9 mph 9.2 mph 60% 0 in 0 W/m2
01:53 59 °F 45.1 °F 29.4 in NNW 5.4 mph 9.2 mph 60% 0 in 0 W/m2
01:58 59 °F 45.1 °F 29.4 in NW 2.2 mph 7.6 mph 60% 0 in 0 W/m2
02:03 58.6 °F 45.7 °F 29.4 in NW 2.2 mph 6.9 mph 62% 0 in 0 W/m2
02:08 58.5 °F 45.9 °F 29.4 in NNW 2.2 mph 6 mph 63% 0 in 0 W/m2
02:13 57.9 °F 45.9 °F 29.4 in West 1.6 mph 4.5 mph 64% 0 in 0 W/m2
02:18 57.6 °F 45.5 °F 29.4 in West 1.6 mph 4.5 mph 64% 0 in 0 W/m2
02:23 57.6 °F 45.5 °F 29.4 in NW 3.1 mph 4.5 mph 64% 0 in 0 W/m2
02:28 57.6 °F 45.5 °F 29.4 in NW 3.1 mph 5.4 mph 64% 0 in 0 W/m2
02:33 57.7 °F 45.7 °F 29.4 in NW 2.2 mph 5.4 mph 64% 0 in 0 W/m2
02:38 57.6 °F 45.5 °F 29.4 in NW 2.2 mph 5.4 mph 64% 0 in 0 W/m2
02:43 57.2 °F 45.7 °F 29.4 in NNW 0.7 mph 3.8 mph 65% 0 in 0 W/m2
02:49 57 °F 45.9 °F 29.4 in NNW 1.6 mph 3.1 mph 66% 0 in 0 W/m2
02:54 56.8 °F 46 °F 29.4 in Calm   2.2 mph 67% 0 in 0 W/m2
02:59 56.5 °F 45.7 °F 29.4 in Calm   2.2 mph 67% 0 in 0 W/m2
03:04 56.3 °F 45.5 °F 29.4 in Calm     67% 0 in 0 W/m2
03:10 56.1 °F 45.7 °F 29.4 in North 0.7 mph 2.2 mph 68% 0 in 0 W/m2
03:16 55.8 °F 45.9 °F 29.4 in North 0.7 mph 2.2 mph 69% 0 in 0 W/m2
03:21 55.6 °F 45.7 °F 29.4 in Calm   1.6 mph 69% 0 in 0 W/m2
03:26 55.4 °F 45.3 °F 29.4 in Calm   1.6 mph 69% 0 in 0 W/m2
03:31 55.6 °F 46 °F 29.4 in NW 3.1 mph 4.5 mph 70% 0 in 0 W/m2
03:36 55.8 °F 46.9 °F 29.5 in NW 3.8 mph 8.3 mph 72% 0 in 0 W/m2
03:41 56.5 °F 47.7 °F 29.4 in NW 6 mph 10.7 mph 72% 0 in 0 W/m2
03:46 57.2 °F 47.8 °F 29.4 in NW 6 mph 10.7 mph 71% 0 in 0 W/m2
03:51 57.4 °F 48 °F 29.5 in NNW 4.5 mph 9.8 mph 71% 0 in 0 W/m2
03:56 57.4 °F 48 °F 29.4 in NNW 6.9 mph 9.8 mph 71% 0 in 0 W/m2
04:01 57.2 °F 47.8 °F 29.4 in North 6 mph 9.8 mph 71% 0 in 0 W/m2
04:04 57.2 °F 47.8 °F 29.4 in North 3.8 mph 11.4 mph 71% 0 in 0 W/m2
04:09 57.4 °F 47.7 °F 29.4 in NW 3.8 mph 11.4 mph 70% 0 in 0 W/m2
04:14 57 °F 48 °F 29.5 in WNW 2.2 mph 9.2 mph 72% 0 in 0 W/m2
04:19 56.8 °F 47.8 °F 29.5 in WNW 1.6 mph 4.5 mph 72% 0 in 0 W/m2
04:24 56.5 °F 48.4 °F 29.5 in NNW 0.7 mph 4.5 mph 74% 0 in 0 W/m2
04:29 56.3 °F 48.6 °F 29.5 in NNW 1.6 mph 5.4 mph 75% 0 in 0 W/m2
04:34 56.1 °F 48.7 °F 29.5 in NW 1.6 mph 5.4 mph 76% 0 in 0 W/m2
04:39 55.9 °F 48.6 °F 29.5 in NNW 1.6 mph 4.5 mph 76% 0 in 0 W/m2
04:44 55.9 °F 48.7 °F 29.5 in NNW 3.1 mph 4.5 mph 77% 0 in 0 W/m2
04:49 55.8 °F 48.7 °F 29.5 in NNW 2.2 mph 5.4 mph 77% 0 in 0 W/m2
04:54 55.8 °F 48.9 °F 29.5 in NNW 3.1 mph 6 mph 78% 0 in 0 W/m2
04:59 55.9 °F 49.3 °F 29.5 in NNW 3.1 mph 6.9 mph 78% 0 in 0 W/m2
05:04 56.1 °F 48.9 °F 29.5 in NNW 3.1 mph 6.9 mph 77% 0 in 0 W/m2
05:09 56.1 °F 48.9 °F 29.5 in NNW 3.8 mph 6.9 mph 77% 0 in 0 W/m2
05:14 55.9 °F 48.6 °F 29.5 in NW 2.2 mph 6 mph 76% 0 in 0 W/m2
05:19 55.9 °F 48.6 °F 29.5 in NW 3.1 mph 5.4 mph 76% 0 in 0 W/m2
05:24 55.9 °F 48.7 °F 29.5 in NW 3.1 mph 5.4 mph 77% 0 in 0 W/m2
05:29 55.9 °F 48.7 °F 29.5 in NNW 2.2 mph 5.4 mph 77% 0 in 0 W/m2
05:34 55.9 °F 49.3 °F 29.5 in NNW 3.8 mph 5.4 mph 78% 0 in 0 W/m2
05:39 55.8 °F 48.9 °F 29.5 in North 3.1 mph 6 mph 78% 0 in 0 W/m2
05:44 55.6 °F 48.7 °F 29.5 in North 3.1 mph 6 mph 78% 0 in 0 W/m2
05:49 55.6 °F 48.7 °F 29.5 in North 1.6 mph 6 mph 78% 0 in 0 W/m2
05:54 55.4 °F 48.7 °F 29.5 in North 3.8 mph 4.5 mph 78% 0 in 0 W/m2
05:59 55.4 °F 48.7 °F 29.5 in NNW 0.7 mph 5.4 mph 78% 0 in 0 W/m2
06:04 55.6 °F 48.6 °F 29.5 in NW 1.6 mph 5.4 mph 77% 0 in 0 W/m2
06:09 55.6 °F 48 °F 29.5 in WNW 2.2 mph 4.5 mph 76% 0 in 2 W/m2
06:14 55.8 °F 48 °F 29.5 in Calm   5.4 mph 75% 0 in 5 W/m2
06:19 55.8 °F 47.7 °F 29.5 in WNW 0.7 mph 5.4 mph 74% 0 in 9 W/m2
06:24 55.8 °F 47.1 °F 29.5 in West 0.7 mph 3.1 mph 73% 0 in 13 W/m2
06:29 55.8 °F 46.9 °F 29.5 in Calm   2.2 mph 72% 0 in 16 W/m2
06:34 55.8 °F 46.6 °F 29.5 in WSW 1.6 mph 3.1 mph 71% 0 in 16 W/m2
06:39 56.1 °F 46.6 °F 29.5 in WSW 3.1 mph 3.8 mph 70% 0 in 14 W/m2
06:44 56.1 °F 46 °F 29.5 in WSW 4.5 mph 6.9 mph 69% 0 in 16 W/m2
06:49 56.1 °F 46 °F 29.5 in WSW 2.2 mph 6.9 mph 69% 0 in 16 W/m2
06:54 56.1 °F 46 °F 29.5 in WSW 1.6 mph 6.9 mph 69% 0 in 18 W/m2
06:59 55.9 °F 46.8 °F 29.5 in Calm   3.1 mph 71% 0 in 19 W/m2
07:04 55.9 °F 46.8 °F 29.5 in WNW 1.6 mph 3.1 mph 71% 0 in 22 W/m2
07:09 55.9 °F 47.5 °F 29.5 in Calm   2.2 mph 73% 0 in 29 W/m2
07:14 56.1 °F 48.4 °F 29.5 in Calm   2.2 mph 75% 0 in 45 W/m2
07:19 56.7 °F 49.3 °F 29.5 in WNW 0.7 mph 3.8 mph 76% 0 in 58 W/m2
07:24 57 °F 49.5 °F 29.5 in WNW 3.1 mph 5.4 mph 76% 0 in 60 W/m2
07:29 57.4 °F 49.8 °F 29.5 in WNW 2.2 mph 5.4 mph 76% 0 in 78 W/m2
07:34 57.6 °F 49.6 °F 29.5 in WNW 3.8 mph 5.4 mph 75% 0 in 73 W/m2
07:39 57.7 °F 49.5 °F 29.6 in WNW 3.1 mph 6 mph 74% 0 in 80 W/m2
07:44 58.1 °F 49.1 °F 29.6 in WNW 3.1 mph 6 mph 72% 0 in 101 W/m2
07:49 58.3 °F 48.9 °F 29.6 in WNW 3.8 mph 6 mph 71% 0 in 109 W/m2
07:54 58.6 °F 49.3 °F 29.6 in Calm   7.6 mph 71% 0 in 111 W/m2
07:59 59 °F 48.9 °F 29.6 in WNW 2.2 mph 7.6 mph 69% 0 in 115 W/m2
08:04 58.8 °F 48.4 °F 29.6 in WNW 4.5 mph 8.3 mph 68% 0 in 92 W/m2
08:09 58.6 °F 47.7 °F 29.6 in West 2.2 mph 8.3 mph 67% 0 in 84 W/m2
08:14 58.6 °F 47.7 °F 29.6 in West 3.1 mph 7.6 mph 67% 0 in 102 W/m2
08:19 59.2 °F 47.8 °F 29.6 in West 2.2 mph 6 mph 66% 0 in 274 W/m2
08:24 61 °F 48.7 °F 29.6 in WNW 3.1 mph 4.5 mph 64% 0 in 263 W/m2
08:29 61.7 °F 48 °F 29.6 in West 4.5 mph 6.9 mph 61% 0 in 94 W/m2
08:34 59.7 °F 45.3 °F 29.6 in WSW 8.3 mph 13 mph 59% 0 in 90 W/m2
08:39 58.6 °F 46 °F 29.6 in WSW 2.2 mph 13 mph 63% 0 in 94 W/m2
08:44 58.5 °F 46.2 °F 29.6 in SW 6.9 mph 10.7 mph 64% 0 in 97 W/m2
08:49 57.7 °F 46.6 °F 29.6 in WSW 6.9 mph 12.1 mph 66% 0 in 101 W/m2
08:54 57.7 °F 47.3 °F 29.6 in WSW 3.8 mph 12.1 mph 68% 0 in 128 W/m2
08:59 57.9 °F 47.8 °F 29.6 in WSW 2.2 mph 7.6 mph 69% 0 in 75 W/m2
09:04 57.9 °F 48.6 °F 29.6 in WSW 3.1 mph 10.7 mph 71% 0 in 51 W/m2
09:09 57.6 °F 49.3 °F 29.6 in WSW 6.9 mph 10.7 mph 74% 0 in 64 W/m2
09:14 57.2 °F 48.9 °F 29.6 in WSW 10.7 mph 15.2 mph 74% 0 in 102 W/m2
09:19 57.2 °F 48.9 °F 29.6 in WSW 8.3 mph 15.9 mph 74% 0 in 122 W/m2
09:24 57.6 °F 49.6 °F 29.6 in WSW 9.8 mph 19 mph 75% 0 in 160 W/m2
09:29 57.6 °F 50.2 °F 29.6 in WSW 9.2 mph 19 mph 76% 0 in 128 W/m2
09:34 57.6 °F 50.2 °F 29.6 in WSW 11.4 mph 19.7 mph 76% 0 in 125 W/m2
09:39 57.6 °F 50.2 °F 29.6 in WSW 9.2 mph 19.7 mph 76% 0 in 198 W/m2
09:44 57.7 °F 50.2 °F 29.6 in WSW 14.5 mph 21.3 mph 76% 0 in 168 W/m2
09:49 57.4 °F 50.5 °F 29.6 in SW 9.8 mph 21.3 mph 78% 0 in 189 W/m2
09:54 57 °F 51.3 °F 29.6 in SW 9.8 mph 21.3 mph 81% 0 in 166 W/m2
09:59 57.2 °F 51.4 °F 29.6 in WSW 13 mph 21.3 mph 81% 0 in 188 W/m2
10:04 56.8 °F 50.7 °F 29.6 in WSW 9.2 mph 21.3 mph 80% 0 in 201 W/m2
10:09 57 °F 51.3 °F 29.6 in WSW 13.6 mph 21.3 mph 81% 0 in 136 W/m2
10:14 56.7 °F 51.3 °F 29.6 in West 10.7 mph 22.1 mph 82% 0 in 170 W/m2
10:19 56.5 °F 51.6 °F 29.6 in West 9.2 mph 22.1 mph 84% 0 in 273 W/m2
10:24 56.8 °F 52.3 °F 29.6 in WSW 11.4 mph 19.7 mph 85% 0 in 165 W/m2
10:29 55.9 °F 51.4 °F 29.6 in SW 12.1 mph 19.7 mph 85% 0 in 105 W/m2
10:34 54.9 °F 50.7 °F 29.6 in SW 9.2 mph 20.6 mph 86% 0 in 176 W/m2
10:39 54.7 °F 51.4 °F 29.6 in WSW 9.8 mph 21.3 mph 89% 0.01 in 178 W/m2
10:44 54.9 °F 52.3 °F 29.6 in SW 7.6 mph 21.3 mph 91% 0.01 in 156 W/m2
10:49 55.2 °F 52.3 °F 29.6 in SW 11.4 mph 17.4 mph 90% 0.01 in 176 W/m2
10:54 55.6 °F 51.4 °F 29.6 in SW 13 mph 19.7 mph 86% 0.01 in 185 W/m2
10:59 56.1 °F 51.6 °F 29.6 in SW 13 mph 19.7 mph 85% 0.01 in 202 W/m2
11:04 56.5 °F 51.1 °F 29.6 in WSW 9.2 mph 18.3 mph 82% 0.01 in 268 W/m2
11:09 56.8 °F 51.1 °F 29.7 in WSW 9.2 mph 19 mph 81% 0.01 in 279 W/m2
11:14 57.2 °F 50.4 °F 29.7 in WSW 14.5 mph 19 mph 78% 0.01 in 234 W/m2
11:19 57.6 °F 50.7 °F 29.7 in West 11.4 mph 19 mph 78% 0.01 in 309 W/m2
11:24 57.9 °F 50.4 °F 29.7 in WSW 8.3 mph 18.3 mph 76% 0.01 in 317 W/m2
11:29 58.6 °F 51.1 °F 29.7 in SW 9.2 mph 19 mph 76% 0.01 in 342 W/m2
11:34 58.8 °F 50.9 °F 29.7 in SW 18.3 mph 21.3 mph 75% 0.01 in 408 W/m2
11:52 60.6 °F 50 °F 29.7 in SW 13 mph 21.3 mph 68% 0 in 816 W/m2
11:57 61 °F 50.4 °F 29.7 in SW 10.7 mph 21.3 mph 68% 0 in 529 W/m2
12:02 60.8 °F 48.9 °F 29.7 in SW 12.1 mph 23.5 mph 65% 0 in 985 W/m2
12:07 60.8 °F 49.5 °F 29.7 in SW 13 mph 23.5 mph 66% 0 in 940 W/m2
12:12 61.7 °F 49.8 °F 29.7 in SW 15.2 mph 22.1 mph 65% 0 in 940 W/m2
12:17 61.7 °F 49.5 °F 29.7 in WSW 13.6 mph 22.8 mph 64% 0 in 967 W/m2
12:22 61.9 °F 49.6 °F 29.7 in WSW 13.6 mph 22.8 mph 64% 0 in 999 W/m2
12:27 62.4 °F 49.6 °F 29.7 in WSW 14.5 mph 22.1 mph 63% 0 in 1044 W/m2
12:32 62.1 °F 48.9 °F 29.7 in SW 11.4 mph 23.5 mph 62% 0 in 1064 W/m2
12:37 63 °F 49.3 °F 29.7 in SSW 13.6 mph 23.5 mph 61% 0 in 1167 W/m2
12:42 63.1 °F 49.8 °F 29.7 in SW 11.4 mph 24.4 mph 62% 0 in 1147 W/m2
12:47 63.5 °F 49.5 °F 29.7 in SW 12.1 mph 24.4 mph 60% 0 in 355 W/m2
12:52 62.8 °F 48.4 °F 29.7 in SW 10.7 mph 22.8 mph 59% 0 in 698 W/m2
12:57 62.1 °F 48.9 °F 29.7 in WSW 10.7 mph 22.8 mph 62% 0 in 585 W/m2
13:02 62.1 °F 49.3 °F 29.7 in SW 11.4 mph 19 mph 63% 0 in 351 W/m2
13:07 61.2 °F 48 °F 29.7 in SW 8.3 mph 19 mph 62% 0 in 493 W/m2
13:12 61.7 °F 48.6 °F 29.7 in SW 10.7 mph 19 mph 62% 0 in 299 W/m2
13:17 61.2 °F 48 °F 29.7 in SW 11.4 mph 19 mph 62% 0 in 541 W/m2
13:22 62.2 °F 48.6 °F 29.7 in SW 13.6 mph 19 mph 61% 0 in 319 W/m2
13:27 61.5 °F 48 °F 29.7 in SW 12.1 mph 20.6 mph 61% 0 in 191 W/m2
13:32 60.1 °F 46.2 °F 29.7 in SSW 15.9 mph 21.3 mph 60% 0 in 143 W/m2
13:37 59.9 °F 47.3 °F 29.7 in SSW 10.7 mph 21.3 mph 63% 0 in 157 W/m2
13:42 59.9 °F 47.3 °F 29.7 in SW 10.7 mph 19 mph 63% 0 in 195 W/m2
13:47 60.1 °F 47.8 °F 29.7 in SSW 9.8 mph 19 mph 64% 0 in 179 W/m2
13:52 59.9 °F 47.7 °F 29.7 in SSW 11.4 mph 17.4 mph 64% 0 in 209 W/m2
13:57 60.1 °F 47.5 °F 29.7 in SSW 9.2 mph 19 mph 63% 0 in 341 W/m2
14:02 61 °F 48.4 °F 29.7 in SSW 12.1 mph 19 mph 63% 0 in 506 W/m2
14:07 61.5 °F 48 °F 29.7 in SSW 10.7 mph 18.3 mph 61% 0 in 525 W/m2
14:12 62.1 °F 47.7 °F 29.7 in SSW 9.2 mph 18.3 mph 59% 0 in 601 W/m2
14:17 63.1 °F 48.6 °F 29.7 in SSW 11.4 mph 19 mph 59% 0 in 510 W/m2
14:22 63 °F 47.5 °F 29.7 in SSW 9.2 mph 19 mph 57% 0 in 325 W/m2
14:27 61.7 °F 48 °F 29.8 in SW 12.1 mph 16.8 mph 61% 0 in 340 W/m2
14:32 61.7 °F 47.7 °F 29.8 in SW 9.2 mph 16.8 mph 60% 0 in 407 W/m2
14:37 61.7 °F 47.1 °F 29.8 in SSW 6 mph 16.8 mph 59% 0 in 474 W/m2
14:42 62.1 °F 48.9 °F 29.8 in SSW 13 mph 16.8 mph 62% 0 in 314 W/m2
14:47 61.5 °F 48.7 °F 29.8 in SW 7.6 mph 16.8 mph 63% 0 in 276 W/m2
14:52 61.3 °F 48.7 °F 29.8 in SW 10.7 mph 16.8 mph 63% 0 in 453 W/m2
14:57 62.4 °F 49.6 °F 29.8 in SSW 5.4 mph 14.5 mph 63% 0 in 506 W/m2
15:02 62.4 °F 49.6 °F 29.8 in SSW 12.1 mph 16.8 mph 63% 0 in 825 W/m2
15:07 63.3 °F 49.6 °F 29.8 in SSW 9.8 mph 17.4 mph 61% 0 in 832 W/m2
15:12 63.9 °F 48.7 °F 29.8 in SSW 10.7 mph 19.7 mph 58% 0 in 785 W/m2
15:17 63.5 °F 49.8 °F 29.8 in South 8.3 mph 19.7 mph 61% 0 in 807 W/m2
15:22 63.7 °F 48.2 °F 29.8 in SSW 9.8 mph 15.9 mph 57% 0 in 448 W/m2
15:27 63.3 °F 48.7 °F 29.8 in SSW 6.9 mph 16.8 mph 59% 0 in 271 W/m2
15:32 64 °F 49.5 °F 29.8 in SSW 9.2 mph 16.8 mph 59% 0 in 709 W/m2
15:37 64.2 °F 49.3 °F 29.8 in SSW 7.6 mph 15.9 mph 58% 0 in 546 W/m2
15:42 64.2 °F 48.7 °F 29.8 in SSW 7.6 mph 17.4 mph 57% 0 in 428 W/m2
15:47 63.9 °F 48.4 °F 29.8 in SSW 12.1 mph 17.4 mph 57% 0 in 356 W/m2
15:52 63.5 °F 48.6 °F 29.8 in SSW 9.8 mph 16.8 mph 58% 0 in 289 W/m2
16:12 62.8 °F 48.4 °F 29.8 in SSW 11.4 mph 16.8 mph 59% 0 in 265 W/m2
16:17 62.1 °F 47.1 °F 29.8 in SSW 9.8 mph 17.4 mph 58% 0 in 264 W/m2
16:22 62.1 °F 47.1 °F 29.8 in SSW 10.7 mph 17.4 mph 58% 0 in 271 W/m2
16:27 62.4 °F 47.5 °F 29.8 in SSW 10.7 mph 15.2 mph 58% 0 in 344 W/m2
16:32 62.4 °F 47.5 °F 29.8 in SSW 7.6 mph 15.9 mph 58% 0 in 375 W/m2
16:37 63 °F 46.6 °F 29.8 in South 7.6 mph 15.9 mph 55% 0 in 424 W/m2
16:42 63.5 °F 47.1 °F 29.8 in South 10.7 mph 15.9 mph 55% 0 in 456 W/m2
16:47 64.2 °F 47.1 °F 29.8 in South 9.8 mph 17.4 mph 54% 0 in 605 W/m2
16:52 64.2 °F 46.8 °F 29.8 in SSW 12.1 mph 17.4 mph 53% 0 in 579 W/m2
16:57 64.8 °F 47.7 °F 29.8 in SSW 5.4 mph 17.4 mph 54% 0 in 552 W/m2
17:02 65.7 °F 47.1 °F 29.8 in South 9.8 mph 15.2 mph 51% 0 in 543 W/m2
17:07 65.1 °F 47.7 °F 29.8 in South 9.8 mph 15.2 mph 53% 0 in 543 W/m2
17:12 64.9 °F 46.4 °F 29.8 in South 10.7 mph 15.2 mph 51% 0 in 544 W/m2
17:17 64.9 °F 47.5 °F 29.8 in South 13 mph 15.9 mph 53% 0 in 579 W/m2
17:22 64.9 °F 46.4 °F 29.8 in South 9.8 mph 15.9 mph 51% 0 in 458 W/m2
17:27 64.6 °F 47.7 °F 29.8 in South 6.9 mph 15.9 mph 54% 0 in 458 W/m2
17:32 64 °F 47.1 °F 29.8 in South 8.3 mph 15.2 mph 54% 0 in 259 W/m2
17:37 63.9 °F 46.4 °F 29.8 in South 5.4 mph 15.2 mph 53% 0 in 230 W/m2
17:54 62.8 °F 46.9 °F 29.8 in South 6.9 mph 11.4 mph 56% 0 in 159 W/m2
17:59 62.1 °F 47.1 °F 29.8 in South 9.8 mph 13.6 mph 58% 0 in 127 W/m2
18:04 61.7 °F 46.2 °F 29.8 in SSW 6.9 mph 13.6 mph 57% 0 in 135 W/m2
18:09 61.7 °F 46.2 °F 29.8 in SSW 5.4 mph 12.1 mph 57% 0 in 148 W/m2
18:15 61.5 °F 46.2 °F 29.8 in SSW 6.9 mph 13 mph 57% 0 in 122 W/m2
18:20 61.5 °F 45.1 °F 29.8 in South 6.9 mph 13 mph 55% 0 in 138 W/m2
18:25 61.7 °F 45.3 °F 29.8 in South 6 mph 11.4 mph 55% 0 in 195 W/m2
18:30 63 °F 45.1 °F 29.8 in South 5.4 mph 11.4 mph 52% 0 in 217 W/m2
18:35 63.3 °F 45.3 °F 29.8 in South 5.4 mph 10.7 mph 52% 0 in 140 W/m2
18:40 63 °F 44.1 °F 29.8 in SSW 6.9 mph 11.4 mph 50% 0 in 230 W/m2
18:45 63.5 °F 45.1 °F 29.8 in South 3.8 mph 11.4 mph 51% 0 in 118 W/m2
18:50 63 °F 44.1 °F 29.8 in South 7.6 mph 13 mph 50% 0 in 236 W/m2
18:55 63.5 °F 44.1 °F 29.8 in South 6 mph 13 mph 49% 0 in 107 W/m2
19:00 62.6 °F 45.1 °F 29.8 in South 4.5 mph 11.4 mph 53% 0 in 129 W/m2
19:05 62.2 °F 44.4 °F 29.8 in South 3.1 mph 11.4 mph 52% 0 in 97 W/m2
19:10 61.9 °F 45.1 °F 29.8 in South 3.8 mph 10.7 mph 54% 0 in 93 W/m2
19:15 62.1 °F 45.7 °F 29.8 in South 6.9 mph 10.7 mph 55% 0 in 88 W/m2
19:20 61.9 °F 45.7 °F 29.8 in South 3.8 mph 8.3 mph 55% 0 in 107 W/m2
19:25 63 °F 45.7 °F 29.8 in South 3.8 mph 8.3 mph 53% 0 in 136 W/m2
19:30 63.1 °F 45.1 °F 29.8 in South 3.8 mph 7.6 mph 52% 0 in 60 W/m2
19:36 62.2 °F 45.3 °F 29.8 in South 3.1 mph 6.9 mph 54% 0 in 56 W/m2
19:41 61.9 °F 44.6 °F 29.8 in South 1.6 mph 6.9 mph 53% 0 in 68 W/m2
19:46 62.2 °F 45.3 °F 29.8 in South 3.1 mph 6 mph 54% 0 in 87 W/m2
19:51 63.3 °F 45 °F 29.8 in SSW 1.6 mph 6 mph 51% 0 in 54 W/m2
19:56 63.1 °F 45.1 °F 29.8 in South 0.7 mph 3.8 mph 52% 0 in 62 W/m2
20:01 62.6 °F 45.1 °F 29.8 in South 4.5 mph 6 mph 53% 0 in 46 W/m2
20:06 61.5 °F 45.7 °F 29.9 in SSW 3.1 mph 6 mph 56% 0 in 25 W/m2
20:11 60.8 °F 44.4 °F 29.9 in South 2.2 mph 6 mph 55% 0 in 23 W/m2
20:16 60.4 °F 44.8 °F 29.9 in SSE 1.6 mph 6 mph 56% 0 in 16 W/m2
20:21 60.3 °F 44.4 °F 29.9 in SSE 2.2 mph 6 mph 56% 0 in 13 W/m2
20:26 59.9 °F 43.7 °F 29.9 in South 2.2 mph 6 mph 55% 0 in 8 W/m2
20:31 59.5 °F 43.9 °F 29.9 in South 2.2 mph 6 mph 56% 0 in 5 W/m2
20:36 59.2 °F 44.1 °F 29.9 in SSE 1.6 mph 5.4 mph 57% 0 in 2 W/m2
20:41 59 °F 43.9 °F 29.9 in SSE 1.6 mph 3.8 mph 57% 0 in 0 W/m2
20:46 58.8 °F 44.1 °F 29.9 in SSE 0.7 mph 3.8 mph 58% 0 in 0 W/m2
20:51 58.5 °F 44.2 °F 29.9 in Calm   2.2 mph 59% 0 in 0 W/m2
20:57 57.9 °F 44.1 °F 29.9 in South 0.7 mph 2.2 mph 60% 0 in 0 W/m2
21:02 57.4 °F 44.1 °F 29.9 in SSE 1.6 mph 2.2 mph 61% 0 in 0 W/m2
21:07 57.2 °F 44.8 °F 29.9 in Calm   2.2 mph 63% 0 in 0 W/m2
21:12 56.8 °F 44.8 °F 29.9 in Calm   2.2 mph 64% 0 in 0 W/m2
21:17 56.3 °F 44.8 °F 29.9 in Calm   0.7 mph 65% 0 in 0 W/m2
21:22 56.1 °F 45 °F 29.9 in NW 0.7 mph 1.6 mph 66% 0 in 0 W/m2
21:27 55.8 °F 45 °F 29.9 in NNW 1.6 mph 2.2 mph 67% 0 in 0 W/m2
21:32 55 °F 45.1 °F 29.9 in Calm   2.2 mph 69% 0 in 0 W/m2
21:37 54.7 °F 45.5 °F 29.9 in NNW 2.2 mph 3.8 mph 71% 0 in 0 W/m2
21:42 54.3 °F 45.5 °F 29.9 in NNW 1.6 mph 3.8 mph 72% 0 in 0 W/m2
21:48 54.1 °F 46 °F 29.9 in NW 3.1 mph 4.5 mph 74% 0 in 0 W/m2
21:53 54.1 °F 46.4 °F 29.9 in NW 2.2 mph 4.5 mph 75% 0 in 0 W/m2
21:58 53.8 °F 46 °F 29.9 in NW 0.7 mph 4.5 mph 75% 0 in 0 W/m2
22:03 53.4 °F 46.4 °F 29.9 in NNW 1.6 mph 3.1 mph 77% 0 in 0 W/m2
22:08 54.1 °F 47.1 °F 29.9 in NNW 2.2 mph 3.8 mph 77% 0 in 0 W/m2
22:13 53.1 °F 47.1 °F 29.9 in Calm   3.8 mph 80% 0 in 0 W/m2
22:18 52.9 °F 47.1 °F 29.9 in North 1.6 mph 3.8 mph 81% 0 in 0 W/m2
22:23 52.9 °F 47.5 °F 29.9 in North 1.6 mph 2.2 mph 82% 0 in 0 W/m2
22:28 52.9 °F 47.5 °F 29.9 in Calm   2.2 mph 82% 0 in 0 W/m2
22:33 53.1 °F 47.7 °F 29.9 in NNW 1.6 mph 3.1 mph 82% 0 in 0 W/m2
22:38 53.1 °F 47.7 °F 29.9 in Calm   3.1 mph 82% 0 in 0 W/m2
22:43 53.1 °F 47.7 °F 29.9 in Calm   3.1 mph 82% 0 in 0 W/m2
22:48 52.9 °F 47.5 °F 29.9 in North 1.6 mph 2.2 mph 82% 0 in 0 W/m2
22:53 52.9 °F 47.5 °F 29.9 in North 2.2 mph 3.8 mph 82% 0 in 0 W/m2
22:58 52.9 °F 47.5 °F 29.9 in NNW 2.2 mph 3.8 mph 82% 0 in 0 W/m2
23:03 52.7 °F 46.9 °F 29.9 in NW 1.6 mph 3.8 mph 81% 0 in 0 W/m2
23:08 52.5 °F 46.9 °F 29.9 in NW 3.1 mph 4.5 mph 81% 0 in 0 W/m2
23:13 52.3 °F 46.8 °F 29.9 in NNW 2.2 mph 4.5 mph 81% 0 in 0 W/m2
23:18 52.2 °F 46.6 °F 29.9 in NW 2.2 mph 4.5 mph 81% 0 in 0 W/m2
23:23 51.8 °F 46.2 °F 29.9 in NW 2.2 mph 4.5 mph 81% 0 in 0 W/m2
23:28 51.6 °F 46.6 °F 29.9 in NW 3.1 mph 4.5 mph 83% 0 in 0 W/m2
23:33 51.4 °F 46.6 °F 29.9 in NW 1.6 mph 5.4 mph 83% 0 in 0 W/m2
23:38 51.3 °F 46.6 °F 29.9 in NNW 3.8 mph 6 mph 84% 0 in 0 W/m2
23:43 51.1 °F 46.4 °F 29.9 in NNW 3.1 mph 6 mph 84% 0 in 0 W/m2
23:48 50.9 °F 46.2 °F 29.9 in NNW 3.8 mph 5.4 mph 84% 0 in 0 W/m2
23:53 50.7 °F 46.4 °F 29.9 in NNW 3.8 mph 5.4 mph 85% 0 in 0 W/m2
23:58 50.5 °F 46.2 °F 29.9 in NW 2.2 mph 5.4 mph 85% 0 in 0 W/m2
Northern Hawkes Bay. New Zealand Historic Data
Compliments of Weather Underground - 2.25 mb